When you browse on this site, cookies collect data to enhance your experience and personalize the content and advertising you see.
Visit our Privacy Policy to learn more. By continuing to use the site, you agree to this use of cookies and data.
  • In Hungary
  • List of Countries
  • For 7 days
  • Water Temperature
  • Satellite Maps
  • Weather Map
  • News
  • Weather Widgets
  • user-avatar
    Login

    Hourly Weather Jamestown

    Today, 18 June, Tuesday

    Time Temperature Precipitation Wind Pressure Humidity
    00:00 +15°C° 0 mm 0 mps 722 mmHg 95%
    01:00 +15°C° 0 mm 0 mps 722 mmHg 95%
    02:00 +15°C° 0.3 mm 0 mps 722 mmHg 96%
    03:00 +15°C° 0.3 mm 0 mps 722 mmHg 96%
    04:00 +15°C° 0.3 mm 0 mps 721 mmHg 96%
    05:00 +15°C° 0.3 mm 0 mps 722 mmHg 96%
    06:00 +16°C° 0.3 mm 0 mps 722 mmHg 96%
    07:00 +16°C° 0.3 mm 0 mps 723 mmHg 96%
    08:00 +18°C° 0 mm 0 mps 723 mmHg 91%
    09:00 +21°C° 0 mm 1 mps 723 mmHg 86%
    10:00 +23°C° 0 mm 1 mps 723 mmHg 81%
    11:00 +23°C° 0.1 mm 1 mps 723 mmHg 80%
    12:00 +24°C° 0.1 mm 1 mps 723 mmHg 79%
    13:00 +24°C° 0.1 mm 2 mps 722 mmHg 78%
    14:00 +24°C° 0.1 mm 1 mps 722 mmHg 77%
    15:00 +25°C° 0.1 mm 1 mps 721 mmHg 77%
    16:00 +25°C° 0.1 mm 1 mps 721 mmHg 77%
    17:00 +24°C° 0.2 mm 1 mps 721 mmHg 82%
    18:00 +23°C° 0.2 mm 1 mps 721 mmHg 87%
    19:00 +20°C° 0.2 mm 0 mps 720 mmHg 93%
    20:00 +19°C° 0 mm 0 mps 720 mmHg 93%
    21:00 +18°C° 0 mm 0 mps 720 mmHg 94%
    22:00 +18°C° 0 mm 1 mps 720 mmHg 95%
    23:00 +18°C° 0 mm 1 mps 720 mmHg 96%

    Tomorrow, 19 June, Wednesday

    Time Temperature Precipitation Wind Pressure Humidity
    00:00 +18°C° 0 mm 1 mps 719 mmHg 96%
    01:00 +16°C° 0 mm 1 mps 719 mmHg 97%
    02:00 +16°C° 0 mm 1 mps 719 mmHg 97%
    03:00 +16°C° 0 mm 1 mps 719 mmHg 98%
    04:00 +16°C° 0 mm 1 mps 719 mmHg 98%
    05:00 +18°C° 0 mm 1 mps 719 mmHg 98%
    06:00 +19°C° 0 mm 1 mps 719 mmHg 98%
    07:00 +20°C° 0 mm 1 mps 719 mmHg 97%
    08:00 +21°C° 0.1 mm 1 mps 719 mmHg 94%
    09:00 +22°C° 0.1 mm 1 mps 719 mmHg 92%
    10:00 +23°C° 0.1 mm 1 mps 719 mmHg 89%
    11:00 +23°C° 1 mm 1 mps 718 mmHg 90%
    12:00 +24°C° 1 mm 1 mps 718 mmHg 90%
    13:00 +24°C° 1 mm 2 mps 718 mmHg 91%
    14:00 +24°C° 1 mm 2 mps 717 mmHg 90%
    15:00 +24°C° 1 mm 2 mps 717 mmHg 90%
    16:00 +24°C° 1 mm 2 mps 717 mmHg 89%
    17:00 +23°C° 0.2 mm 2 mps 717 mmHg 91%
    18:00 +23°C° 0.2 mm 2 mps 716 mmHg 92%
    19:00 +21°C° 0.2 mm 2 mps 716 mmHg 93%
    20:00 +20°C° 0.1 mm 2 mps 716 mmHg 94%
    21:00 +19°C° 0.1 mm 1 mps 716 mmHg 95%
    22:00 +18°C° 0.1 mm 1 mps 716 mmHg 96%
    23:00 +18°C° 0 mm 1 mps 715 mmHg 97%

    Day after tomorrow, 20 June, Thursday

    Time Temperature Precipitation Wind Pressure Humidity
    00:00 +18°C° 0 mm 1 mps 715 mmHg 97%
    01:00 +18°C° 0 mm 1 mps 715 mmHg 98%
    02:00 +18°C° 0 mm 1 mps 715 mmHg 98%
    03:00 +18°C° 0 mm 1 mps 714 mmHg 98%
    04:00 +16°C° 0 mm 1 mps 714 mmHg 98%
    05:00 +18°C° 0.2 mm 1 mps 714 mmHg 98%
    06:00 +19°C° 0.2 mm 1 mps 714 mmHg 98%
    07:00 +19°C° 0.2 mm 1 mps 715 mmHg 97%
    08:00 +19°C° 0.4 mm 1 mps 715 mmHg 97%
    09:00 +19°C° 0.4 mm 1 mps 714 mmHg 97%
    10:00 +20°C° 0.4 mm 1 mps 714 mmHg 97%
    11:00 +19°C° 0.7 mm 2 mps 714 mmHg 98%
    12:00 +19°C° 0.7 mm 2 mps 714 mmHg 98%
    13:00 +19°C° 0.7 mm 2 mps 714 mmHg 98%
    14:00 +18°C° 0.9 mm 3 mps 714 mmHg 98%
    15:00 +18°C° 0.9 mm 4 mps 713 mmHg 98%
    16:00 +18°C° 0.9 mm 4 mps 713 mmHg 98%
    17:00 +18°C° 0.1 mm 4 mps 713 mmHg 97%
    18:00 +16°C° 0.1 mm 5 mps 713 mmHg 97%
    19:00 +16°C° 0.1 mm 5 mps 713 mmHg 96%
    20:00 +16°C° 0.3 mm 5 mps 713 mmHg 96%
    21:00 +15°C° 0.3 mm 6 mps 713 mmHg 96%
    22:00 +14°C° 0.3 mm 6 mps 713 mmHg 97%
    23:00 +14°C° 0.3 mm 5 mps 713 mmHg 97%

    21 June, Friday

    Time Temperature Precipitation Wind Pressure Humidity
    00:00 +14°C° 0.3 mm 5 mps 714 mmHg 98%
    01:00 +14°C° 0.3 mm 5 mps 714 mmHg 98%
    02:00 +14°C° 0.1 mm 5 mps 715 mmHg 98%
    03:00 +14°C° 0.1 mm 5 mps 716 mmHg 97%
    04:00 +13°C° 0.1 mm 4 mps 716 mmHg 97%
    05:00 +14°C° 0 mm 4 mps 717 mmHg 97%
    06:00 +14°C° 0 mm 4 mps 718 mmHg 96%
    07:00 +14°C° 0 mm 4 mps 719 mmHg 96%
    08:00 +15°C° 0 mm 4 mps 720 mmHg 87%
    09:00 +17°C° 0 mm 4 mps 720 mmHg 78%
    10:00 +18°C° 0 mm 4 mps 721 mmHg 69%
    11:00 +19°C° 0 mm 5 mps 721 mmHg 66%
    12:00 +19°C° 0 mm 5 mps 722 mmHg 63%
    13:00 +20°C° 0 mm 5 mps 722 mmHg 60%
    14:00 +20°C° 0 mm 5 mps 722 mmHg 61%
    15:00 +20°C° 0 mm 5 mps 723 mmHg 62%
    16:00 +20°C° 0 mm 4 mps 723 mmHg 63%
    17:00 +19°C° 0 mm 4 mps 723 mmHg 69%
    18:00 +18°C° 0 mm 3 mps 723 mmHg 75%
    19:00 +17°C° 0 mm 2 mps 724 mmHg 81%
    20:00 +15°C° 0 mm 2 mps 724 mmHg 84%
    21:00 +14°C° 0 mm 2 mps 724 mmHg 87%
    22:00 +12°C° 0 mm 2 mps 724 mmHg 90%
    23:00 +12°C° 0 mm 1 mps 724 mmHg 90%

    22 June, Saturday

    Time Temperature Precipitation Wind Pressure Humidity
    00:00 +11°C° 0 mm 1 mps 724 mmHg 91%
    01:00 +11°C° 0 mm 1 mps 724 mmHg 91%
    02:00 +10°C° 0 mm 1 mps 724 mmHg 91%
    03:00 +10°C° 0 mm 1 mps 725 mmHg 91%
    04:00 +8°C° 0 mm 0 mps 725 mmHg 91%
    05:00 +10°C° 0 mm 0 mps 725 mmHg 88%
    06:00 +12°C° 0 mm 0 mps 726 mmHg 85%
    07:00 +13°C° 0 mm 0 mps 726 mmHg 82%
    08:00 +16°C° 0 mm 1 mps 726 mmHg 75%
    09:00 +19°C° 0 mm 1 mps 726 mmHg 68%
    10:00 +21°C° 0 mm 1 mps 726 mmHg 62%
    11:00 +22°C° 0 mm 1 mps 726 mmHg 60%
    12:00 +21°C° 0 mm 2 mps 726 mmHg 57%
    13:00 +23°C° 0 mm 2 mps 726 mmHg 55%
    14:00 +23°C° 0 mm 2 mps 726 mmHg 58%
    15:00 +21°C° 0 mm 2 mps 725 mmHg 60%
    16:00 +21°C° 0 mm 3 mps 725 mmHg 62%
    17:00 +20°C° 0 mm 2 mps 725 mmHg 68%
    18:00 +19°C° 0 mm 2 mps 725 mmHg 74%
    19:00 +18°C° 0 mm 1 mps 725 mmHg 80%
    20:00 +16°C° 0 mm 1 mps 725 mmHg 83%
    21:00 +14°C° 0 mm 1 mps 725 mmHg 86%
    22:00 +13°C° 0 mm 1 mps 725 mmHg 89%
    23:00 +13°C° 0 mm 1 mps 725 mmHg 89%

    23 June, Sunday

    Time Temperature Precipitation Wind Pressure Humidity
    00:00 +12°C° 0 mm 1 mps 725 mmHg 89%
    01:00 +12°C° 0 mm 1 mps 725 mmHg 88%
    02:00 +12°C° 0 mm 1 mps 725 mmHg 87%
    03:00 +11°C° 0 mm 1 mps 724 mmHg 86%
    04:00 +10°C° 0 mm 2 mps 724 mmHg 85%
    05:00 +12°C° 0 mm 2 mps 724 mmHg 83%
    06:00 +14°C° 0 mm 2 mps 724 mmHg 80%
    07:00 +15°C° 0 mm 2 mps 724 mmHg 77%
    08:00 +17°C° 0 mm 2 mps 725 mmHg 71%
    09:00 +20°C° 0 mm 2 mps 725 mmHg 66%
    10:00 +23°C° 0 mm 2 mps 725 mmHg 60%
    11:00 +24°C° 0 mm 2 mps 725 mmHg 57%
    12:00 +26°C° 0 mm 2 mps 724 mmHg 53%
    13:00 +27°C° 0 mm 2 mps 724 mmHg 50%
    14:00 +27°C° 0 mm 2 mps 723 mmHg 52%
    15:00 +28°C° 0 mm 1 mps 723 mmHg 54%
    16:00 +28°C° 0 mm 1 mps 722 mmHg 57%
    17:00 +26°C° 0 mm 1 mps 722 mmHg 63%
    18:00 +25°C° 0 mm 1 mps 721 mmHg 69%
    19:00 +23°C° 0 mm 1 mps 721 mmHg 75%
    20:00 +21°C° 0 mm 2 mps 721 mmHg 74%
    21:00 +20°C° 0 mm 2 mps 720 mmHg 74%
    22:00 +19°C° 0 mm 2 mps 720 mmHg 73%
    23:00 +18°C° 0 mm 3 mps 720 mmHg 77%
    Show more